| time (UTC) | temp F | wind direction | speed knots | gust knots | rain 1hr in | rain 24hr in | rain mn in | humidity % | barometer mb |
| 20260510184544 | 60 | 238 | 1.7 | 6.1 | 0.00 | 0.11 | 0.02 | 54 | 960.5 |
| 20260510183050 | 61 | 243 | 3.5 | 6.1 | 0.00 | 0.11 | 0.02 | 53 | 960.5 |
| 20260510181539 | 60 | 229 | 1.7 | 6.1 | 0.00 | 0.11 | 0.02 | 56 | 960.5 |
| 20260510180036 | 58 | 200 | 0.9 | 4.3 | 0.00 | 0.11 | 0.02 | 59 | 960.5 |
| 20260510174534 | 57 | 268 | 1.7 | 5.2 | 0.00 | 0.11 | 0.02 | 62 | 960.7 |
| 20260510173031 | 57 | 255 | 2.6 | 4.3 | 0.00 | 0.11 | 0.02 | 65 | 960.5 |
| 20260510171629 | 56 | 250 | 1.7 | 5.2 | 0.00 | 0.11 | 0.02 | 68 | 960.7 |
| 20260510170031 | 54 | 264 | 1.7 | 3.5 | 0.00 | 0.11 | 0.02 | 77 | 960.9 |
| 20260510164523 | 54 | 242 | 1.7 | 2.6 | 0.00 | 0.13 | 0.02 | 78 | 960.8 |
| 20260510163020 | 52 | 247 | 0.9 | 3.5 | 0.00 | 0.13 | 0.02 | 80 | 960.8 |
| 20260510161523 | 53 | 232 | 0.9 | 3.5 | 0.00 | 0.13 | 0.02 | 81 | 960.6 |
| 20260510160018 | 53 | 259 | 0.9 | 3.5 | 0.00 | 0.13 | 0.02 | 81 | 960.4 |
| 20260510154517 | 52 | 258 | 1.7 | 3.5 | 0.00 | 0.14 | 0.02 | 81 | 960.6 |
| 20260510153016 | 51 | 244 | 0.9 | 2.6 | 0.00 | 0.14 | 0.02 | 81 | 960.6 |
| 20260510151511 | 51 | 235 | 0.9 | 3.5 | 0.00 | 0.14 | 0.02 | 83 | 960.3 |
| 20260510150009 | 51 | 236 | 1.7 | 3.5 | 0.00 | 0.18 | 0.02 | 83 | 960.1 |
| 20260510144507 | 49 | 254 | 1.7 | 4.3 | 0.00 | 0.18 | 0.02 | 86 | 960.0 |
| 20260510143002 | 49 | 258 | 0.9 | 2.6 | 0.00 | 0.18 | 0.02 | 86 | 959.9 |
| 20260510141502 | 49 | 265 | 0.9 | 2.6 | 0.00 | 0.18 | 0.02 | 86 | 959.7 |
| 20260510140059 | 49 | 269 | 1.7 | 3.5 | 0.00 | 0.18 | 0.02 | 85 | 959.5 |
| 20260510134600 | 51 | 244 | 0.9 | 3.5 | 0.00 | 0.21 | 0.02 | 92 | 959.3 |
| 20260510133054 | 51 | 257 | 1.7 | 3.5 | 0.00 | 0.21 | 0.02 | 92 | 959.0 |
| 20260510131554 | 51 | 252 | 2.6 | 4.3 | 0.00 | 0.21 | 0.02 | 92 | 959.0 |
| 20260510130053 | 51 | 217 | 1.7 | 3.5 | 0.00 | 0.21 | 0.02 | 92 | 959.0 |
| 20260510124601 | 51 | 200 | 0.9 | 2.6 | 0.00 | 0.28 | 0.02 | 92 | 958.8 |
| 20260510123049 | 51 | 177 | 0.0 | 3.5 | 0.00 | 0.28 | 0.02 | 92 | 958.6 |
| 20260510121545 | 50 | 173 | 0.9 | 4.3 | 0.00 | 0.28 | 0.02 | 93 | 958.4 |
| 20260510120044 | 50 | 162 | 0.9 | 3.5 | 0.00 | 0.28 | 0.02 | 93 | 958.3 |
| 20260510114540 | 49 | 163 | 0.9 | 4.3 | 0.00 | 0.32 | 0.02 | 93 | 958.0 |
| 20260510113036 | 49 | 154 | 1.7 | 4.3 | 0.00 | 0.32 | 0.02 | 94 | 957.9 |
| 20260510111534 | 49 | 139 | 1.7 | 3.5 | 0.00 | 0.32 | 0.02 | 94 | 957.5 |
| 20260510110039 | 49 | 104 | 2.6 | 5.2 | 0.00 | 0.32 | 0.02 | 94 | 957.3 |
| 20260510104532 | 48 | 103 | 2.6 | 5.2 | 0.00 | 0.41 | 0.02 | 94 | 956.7 |
| 20260510103030 | 48 | 113 | 1.7 | 5.2 | 0.00 | 0.41 | 0.02 | 94 | 956.7 |
| 20260510101528 | 48 | 103 | 2.6 | 5.2 | 0.00 | 0.41 | 0.02 | 94 | 956.7 |
| 20260510100026 | 48 | 101 | 1.7 | 6.1 | 0.00 | 0.41 | 0.02 | 94 | 956.4 |
| 20260510094542 | 48 | 112 | 2.6 | 3.5 | 0.00 | 0.41 | 0.02 | 94 | 956.1 |
| 20260510093026 | 48 | 108 | 2.6 | 6.1 | 0.00 | 0.41 | 0.02 | 94 | 956.2 |
| 20260510091527 | 48 | 143 | 1.7 | 3.5 | 0.00 | 0.41 | 0.02 | 94 | 956.0 |
| 20260510090025 | 48 | 91 | 1.7 | 5.2 | 0.00 | 0.41 | 0.02 | 94 | 955.7 |
| 20260510084525 | 48 | 104 | 2.6 | 7.0 | 0.00 | 0.42 | 0.02 | 94 | 955.8 |
| 20260510083023 | 48 | 91 | 4.3 | 7.8 | 0.00 | 0.42 | 0.02 | 94 | 955.8 |
| 20260510081524 | 47 | 110 | 4.3 | 7.0 | 0.00 | 0.42 | 0.02 | 94 | 955.6 |
| 20260510080022 | 48 | 82 | 5.2 | 7.8 | 0.00 | 0.42 | 0.02 | 93 | 955.4 |
| 20260510074521 | 48 | 87 | 4.3 | 6.1 | 0.00 | 0.43 | 0.02 | 93 | 955.3 |
| 20260510073019 | 48 | 94 | 3.5 | 6.1 | 0.00 | 0.43 | 0.02 | 93 | 955.2 |
| 20260510071517 | 48 | 91 | 6.1 | 10.4 | 0.00 | 0.43 | 0.02 | 93 | 955.4 |
| 20260510070022 | 49 | 79 | 8.7 | 13.0 | 0.00 | 0.43 | 0.02 | 93 | 955.2 |
| 20260510064515 | 48 | 91 | 8.7 | 11.3 | 0.00 | 0.45 | 0.02 | 93 | 955.2 |
| 20260510063016 | 49 | 101 | 6.1 | 13.0 | 0.00 | 0.45 | 0.02 | 93 | 955.2 |
| 20260510061512 | 49 | 98 | 7.8 | 13.9 | 0.01 | 0.45 | 0.02 | 94 | 955.4 |
| 20260510060010 | 48 | 115 | 7.8 | 11.3 | 0.01 | 0.45 | 0.02 | 93 | 955.8 |
| 20260510054506 | 49 | 90 | 7.0 | 8.7 | 0.02 | 0.45 | 0.02 | 93 | 955.9 |
| 20260510053006 | 49 | 124 | 3.5 | 6.1 | 0.01 | 0.44 | 0.01 | 93 | 956.7 |
| 20260510051600 | 49 | 107 | 3.5 | 5.2 | 0.01 | 0.44 | 0.01 | 93 | 956.8 |
| 20260510050058 | 49 | 179 | 0.0 | 2.6 | 0.01 | 0.44 | 0.01 | 93 | 957.0 |
| 20260510044558 | 49 | 244 | 0.9 | 3.5 | 0.00 | 0.43 | 0.00 | 93 | 957.2 |
| 20260510043102 | 49 | 244 | 2.6 | 7.0 | 0.00 | 0.43 | 0.00 | 94 | 957.2 |
| 20260510041554 | 49 | 244 | 3.5 | 7.0 | 0.00 | 0.43 | 0.00 | 94 | 956.9 |
| 20260510040050 | 49 | 242 | 2.6 | 9.6 | 0.00 | 0.43 | 0.00 | 94 | 956.4 |
| 20260510034549 | 49 | 108 | 6.1 | 9.6 | 0.00 | 0.43 | 0.43 | 94 | 955.4 |
| 20260510033058 | 49 | 104 | 5.2 | 8.7 | 0.00 | 0.43 | 0.43 | 93 | 955.3 |
| 20260510031551 | 49 | 94 | 6.1 | 8.7 | 0.00 | 0.43 | 0.43 | 93 | 955.4 |
| 20260510030049 | 50 | 144 | 5.2 | 12.2 | 0.00 | 0.43 | 0.43 | 93 | 955.4 |
| 20260510024549 | 50 | 94 | 10.4 | 16.5 | 0.00 | 0.43 | 0.43 | 93 | 955.1 |
| 20260510023046 | 50 | 81 | 10.4 | 14.8 | 0.00 | 0.43 | 0.43 | 93 | 954.8 |
| 20260510021550 | 50 | 80 | 8.7 | 13.0 | 0.00 | 0.43 | 0.43 | 93 | 954.8 |
| 20260510020044 | 50 | 92 | 9.6 | 15.6 | 0.00 | 0.43 | 0.43 | 93 | 954.9 |
| 20260510014545 | 50 | 94 | 10.4 | 16.5 | 0.00 | 0.43 | 0.43 | 93 | 954.8 |
| 20260510013049 | 50 | 82 | 8.7 | 13.9 | 0.00 | 0.43 | 0.43 | 93 | 954.9 |
| 20260510011549 | 51 | 94 | 7.8 | 12.2 | 0.00 | 0.43 | 0.43 | 92 | 954.6 |
| 20260510010041 | 51 | 88 | 7.8 | 12.2 | 0.00 | 0.43 | 0.43 | 92 | 954.7 |
| 20260510004544 | 51 | 86 | 7.8 | 11.3 | 0.00 | 0.43 | 0.43 | 92 | 954.5 |
| 20260510003041 | 51 | 84 | 7.8 | 11.3 | 0.00 | 0.43 | 0.43 | 91 | 954.3 |
| 20260510001543 | 52 | 98 | 6.1 | 11.3 | 0.00 | 0.43 | 0.43 | 90 | 954.3 |
| 20260510000048 | 52 | 124 | 7.0 | 9.6 | 0.00 | 0.43 | 0.43 | 90 | 954.4 |
| 20260509234539 | 52 | 111 | 6.1 | 8.7 | 0.00 | 0.43 | 0.43 | 90 | 954.2 |
| 20260509233038 | 52 | 146 | 5.2 | 9.6 | 0.00 | 0.43 | 0.43 | 89 | 953.9 |
| 20260509231540 | 53 | 124 | 4.3 | 10.4 | 0.00 | 0.43 | 0.43 | 89 | 953.7 |
| 20260509230037 | 53 | 99 | 7.0 | 11.3 | 0.00 | 0.43 | 0.43 | 89 | 954.0 |
| 20260509224535 | 53 | 158 | 2.6 | 8.7 | 0.01 | 0.43 | 0.43 | 89 | 954.1 |
| 20260509223034 | 53 | 140 | 4.3 | 9.6 | 0.01 | 0.43 | 0.43 | 89 | 954.0 |
| 20260509221533 | 53 | 141 | 4.3 | 12.2 | 0.01 | 0.43 | 0.43 | 90 | 953.8 |
| 20260509220033 | 53 | 172 | 5.2 | 13.0 | 0.01 | 0.43 | 0.43 | 90 | 954.0 |
| 20260509214529 | 53 | 150 | 5.2 | 13.9 | 0.00 | 0.42 | 0.42 | 91 | 954.1 |
| 20260509213032 | 52 | 138 | 4.3 | 9.6 | 0.00 | 0.42 | 0.42 | 93 | 954.0 |
| 20260509211524 | 51 | 148 | 3.5 | 10.4 | 0.00 | 0.42 | 0.42 | 95 | 954.1 |
| 20260509210023 | 50 | 155 | 3.5 | 7.8 | 0.00 | 0.42 | 0.42 | 95 | 954.5 |
| 20260509204521 | 50 | 100 | 3.5 | 7.0 | 0.00 | 0.42 | 0.42 | 95 | 954.6 |
| 20260509203019 | 50 | 130 | 2.6 | 6.1 | 0.00 | 0.42 | 0.42 | 95 | 954.6 |
| 20260509201518 | 50 | 106 | 2.6 | 7.8 | 0.01 | 0.42 | 0.42 | 95 | 954.6 |
| 20260509200017 | 49 | 167 | 4.3 | 7.8 | 0.02 | 0.42 | 0.42 | 95 | 954.9 |
| 20260509194517 | 50 | 131 | 3.5 | 7.0 | 0.05 | 0.42 | 0.42 | 95 | 954.9 |
| 20260509193025 | 50 | 128 | 3.5 | 7.8 | 0.07 | 0.42 | 0.42 | 95 | 955.0 |
| 20260509191516 | 50 | 134 | 2.6 | 7.0 | 0.07 | 0.41 | 0.41 | 95 | 955.0 |
| 20260509190114 | 50 | 143 | 3.5 | 7.8 | 0.06 | 0.40 | 0.40 | 95 | 955.3 |